Hourly Data Report for April 28, 2021

TORONTO CITY
ONTARIO
Current Station Operator: ECCC - MSC

43°40'00.000" N
79°24'00.000" W
112.50 m
6158355
71508
XTO

Download Data

Hourly Data (April 2021)
Hourly Data Report for April 28, 2021
TIME
LST
Temp Definition
°C
Dew Point Definition
°C
Rel Hum Definition
%
Precip. Amount Definition
mm

Wind Dir Definition
10's deg

Wind Spd Definition
km/h
Visibility Definition
km
Stn Press Definition
kPa
Hmdx Definition


Wind Chill Definition


Weather Definition


00:00 10.4 4.1 65 0.0       99.82     LegendNANA
01:00 10.3 4.9 69 0.0       99.79     LegendNANA
02:00 10.5 5.6 71 0.0       99.77     LegendNANA
03:00 10.0 5.9 76 0.5       99.77     LegendNANA
04:00 9.7 6.4 80 0.0       99.70     LegendNANA
05:00 9.7 6.1 78 0.0       99.68     LegendNANA
06:00 9.8 6.4 80 0.0       99.73     LegendNANA
07:00 10.3 6.8 79 0.0       99.70     LegendNANA
08:00 10.5 7.0 79 0.0       99.64     LegendNANA
09:00 9.7 6.7 81 0.0       99.52     LegendNANA
10:00 11.1 7.5 78 0.0       99.74     LegendNANA
11:00 9.9 8.2 89 4.1       99.51     LegendNANA
12:00 9.2 7.7 90 2.0       99.56     LegendNANA
13:00 10.1 8.1 87 0.4       99.53     LegendNANA
14:00 12.2 9.6 84 0.0       99.50     LegendNANA
15:00 14.2 9.6 74 0.0       99.48     LegendNANA
16:00 15.3 10.1 71 0.0       99.45     LegendNANA
17:00 15.4 10.1 71 0.0       99.47     LegendNANA
18:00 16.7 10.9 69 0.0       99.49     LegendNANA
19:00 13.0 8.8 75 0.0       99.56     LegendNANA
20:00 10.6 8.2 85 0.0       99.69     LegendNANA
21:00 9.6 8.2 91 0.0       99.71     LegendNANA
22:00 9.2 8.3 94 0.0       99.69     LegendNANA
23:00 9.1 8.3 95 0.0       99.68     LegendNANA

Notes on Data Quality.

Legend

  • E = Estimated
  • M = Missing
  • NA = Not Available*
  • [empty] = Indicates an unobserved value
Date modified: